CDT,Max TemperatureF,Mean TemperatureF,Min TemperatureF,Max Dew PointF,MeanDew PointF,Min DewpointF,Max Humidity, Mean Humidity, Min Humidity, Max Sea Level PressureIn, Mean Sea Level PressureIn, Min Sea Level PressureIn, Max VisibilityMiles, Mean VisibilityMiles, Min VisibilityMiles, Max Wind SpeedMPH, Mean Wind SpeedMPH, Max Gust SpeedMPH,PrecipitationIn, CloudCover, Events, WindDirDegrees
2013-9-1,90,80,69,74,71,66,95,82,55,29.84,29.81,29.77,10,9,2,17,8,29,0.93,2,Rain-Thunderstorm,194
2013-9-2,85,76,67,73,68,64,96,80,50,29.92,29.88,29.83,10,8,0,13,3,,0.00,2,Fog,302
2013-9-3,81,72,63,65,63,60,94,78,50,30.08,30.00,29.92,10,10,10,9,5,,0.00,2,,355
2013-9-4,81,68,56,64,59,55,97,76,42,30.17,30.12,30.07,10,9,1,6,1,,0.00,0,,19
2013-9-5,85,71,57,67,62,56,97,77,44,30.22,30.17,30.13,10,8,0,6,0,,0.00,0,Fog,44
2013-9-6,88,74,60,70,65,59,96,76,42,30.20,30.13,30.07,10,7,0,9,1,,0.00,0,Fog,131
2013-9-7,88,74,61,70,66,60,97,77,44,30.08,30.03,29.96,10,7,0,10,2,,0.00,1,Fog,216
2013-9-8,84,76,67,73,69,65,95,86,63,30.00,29.96,29.93,10,7,0,6,1,,0.00,1,Fog-Rain,129
2013-9-9,95,82,69,75,72,68,95,76,45,30.01,29.97,29.94,10,7,0,10,3,,0.00,3,Fog,176
2013-9-10,93,83,73,76,73,69,95,78,45,30.13,30.08,30.01,10,7,2,12,4,,0.00,2,,174
2013-9-11,94,83,72,74,72,64,95,74,37,30.16,30.11,30.05,10,8,2,12,4,,0.00,0,,189
2013-9-12,87,76,66,72,67,53,93,74,49,30.06,30.01,29.95,10,8,4,14,4,,0.00,1,,304
2013-9-13,75,64,54,58,53,49,91,68,40,30.11,30.06,30.01,10,10,4,16,7,18,0.00,1,,6
2013-9-14,74,60,46,52,48,45,95,70,36,30.18,30.11,30.07,10,10,4,9,4,,0.00,0,,38
2013-9-15,82,64,45,61,52,45,97,69,32,30.12,30.07,30.03,10,9,0,10,2,,0.00,0,Fog-Rain,191
2013-9-16,77,69,62,62,61,58,92,77,57,30.24,30.17,30.07,10,10,5,13,6,17,0.16,6,Rain,4
2013-9-17,80,68,57,61,58,55,93,74,48,30.25,30.19,30.10,10,10,7,10,5,9,0.00,1,,66
2013-9-18,85,74,65,71,67,61,94,82,59,30.14,30.08,30.02,10,8,2,10,3,,0.17,2,Rain,147
2013-9-19,89,78,67,72,70,66,96,79,48,30.06,30.01,29.93,10,7,2,13,5,17,0.00,0,,180
2013-9-20,75,70,66,71,69,65,95,89,76,29.96,29.90,29.85,10,8,2,12,5,15,0.53,5,Rain,203
2013-9-21,73,64,54,64,54,50,92,74,45,29.92,29.88,29.84,10,10,10,16,8,21,0.00,2,,320
2013-9-22,75,61,48,54,51,47,96,74,39,30.02,29.96,29.92,10,10,10,8,3,,0.00,0,,32
2013-9-23,76,61,46,56,51,46,97,74,41,30.06,30.00,29.97,10,10,3,10,3,,0.00,0,,78
2013-9-24,83,67,51,65,58,50,94,75,43,29.99,29.91,29.84,10,10,7,7,2,,0.00,5,,101
2013-9-25,84,72,62,67,64,60,94,80,48,29.89,29.85,29.82,10,9,5,9,2,,0.00,4,,87
2013-9-26,84,70,57,66,59,55,96,74,39,30.04,29.98,29.89,10,8,1,8,1,,0.00,0,,76
2013-9-27,82,66,50,62,56,50,96,74,35,30.15,30.08,30.04,10,8,0,10,2,17,0.00,0,Fog,88
2013-9-28,84,69,54,64,57,52,96,71,35,30.13,30.07,30.02,10,9,0,20,4,24,0.00,2,Fog,170
2013-9-29,67,65,63,65,63,58,96,90,71,30.05,30.02,29.99,10,6,2,10,5,,0.29,8,Rain,184
2013-9-30,72,68,64,67,64,63,96,89,79,30.01,29.99,29.95,10,8,2,13,4,,0.01,8,Rain,178